GW0639 Weather Reports


Display with metric or nautical units.
time (UTC)temp
F
wind
direction
speed
MPH
gust
MPH
rain 1hr
in
rain 24hr
in
rain mn
in
humidity
%
barometer
mb
20260510224508 65 260 0.0 2.0 0.00 0.05 0.00 70 1016.1
20260510221510 66 209 0.0 3.0 0.00 0.08 0.00 66 1016.1
20260510220011 67 254 0.0 2.0 0.00 0.10 0.00 64 1015.8
20260510214509 67 302 0.0 6.0 0.00 0.11 0.00 64 1015.7
20260510213009 66 298 0.0 5.0 0.00 0.12 0.00 68 1015.6
20260510211511 65 289 0.0 6.0 0.00 0.13 0.00 71 1015.5
20260510210010 67 272 1.0 8.0 0.00 0.15 0.00 72 1015.6
20260510204509 68 281 1.0 7.0 0.00 0.18 0.00 70 1015.3
20260510203025 70 241 1.0 6.0 0.00 0.20 0.00 69 1014.8
20260510201508 71 196 2.0 7.0 0.00 0.23 0.00 66 1014.6
20260510200010 71 207 2.0 7.0 0.00 0.25 0.00 65 1014.6
20260510194510 71 201 2.0 6.0 0.00 0.30 0.00 64 1014.7
20260510193009 71 184 2.0 6.0 0.00 0.33 0.00 64 1014.7
20260510191526 72 212 2.0 9.0 0.00 0.37 0.00 61 1014.8
20260510190008 73 211 2.0 7.0 0.00 0.40 0.00 61 1015.0
20260510183011 72 174 3.0 9.0 0.00 0.43 0.00 62 1014.9
20260510181510 73 203 3.0 7.0 0.00 0.43 0.00 63 1015.1
20260510180025 72 215 2.0 8.0 0.00 0.43 0.00 64 1015.1
20260510174507 71 202 1.0 6.0 0.00 0.43 0.00 65 1015.2
20260510173009 70 217 2.0 7.0 0.00 0.43 0.00 68 1015.3
20260510171508 69 245 2.0 11.0 0.00 0.43 0.00 69 1015.4
20260510170011 68 179 2.0 6.0 0.00 0.43 0.00 69 1015.6
20260510164511 68 219 2.0 9.0 0.00 0.43 0.00 71 1015.8
20260510163010 67 213 2.0 7.0 0.00 0.43 0.00 74 1015.8
20260510161526 65 206 1.0 5.0 0.00 0.43 0.00 75 1016.0
20260510160010 65 208 1.0 4.0 0.00 0.43 0.00 74 1016.2
20260510154508 65 220 1.0 6.0 0.00 0.43 0.00 73 1016.4
20260510153008 64 191 2.0 9.0 0.00 0.43 0.00 76 1016.5
20260510150025 62 194 1.0 11.0 0.00 0.43 0.00 78 1016.4
20260510144510 60 132 0.0 3.0 0.00 0.43 0.00 81 1016.5
20260510141508 58 143 1.0 5.0 0.00 0.43 0.00 84 1016.6
20260510140023 57 185 0.0 3.0 0.00 0.43 0.00 85 1016.5
20260510134508 57 181 0.0 2.0 0.00 0.43 0.00 86 1016.5
20260510133009 57 336 0.0 0.0 0.00 0.43 0.00 87 1016.5
20260510131509 57 247 0.0 2.0 0.00 0.43 0.00 87 1016.5
20260510130008 57 252 0.0 2.0 0.00 0.43 0.00 90 1016.5
20260510124508 56 174 0.0 3.0 0.00 0.43 0.00 90 1016.3
20260510123008 54 143 0.0 3.0 0.00 0.43 0.00 92 1016.2
20260510121509 54 158 0.0 3.0 0.00 0.43 0.00 94 1016.2
20260510120025 53 198 0.0 0.0 0.00 0.43 0.00 95 1016.1
20260510114510 53 178 0.0 1.0 0.00 0.43 0.00 95 1016.0
20260510113026 52 180 0.0 0.0 0.00 0.43 0.00 95 1016.0
20260510111510 52 180 0.0 0.0 0.00 0.43 0.00 96 1015.7
20260510104508 52 310 0.0 0.0 0.00 0.43 0.00 95 1015.6
20260510103026 52 293 0.0 0.0 0.00 0.44 0.00 95 1015.3
20260510101508 52 200 0.0 4.0 0.00 0.44 0.00 95 1015.1
20260510100010 52 168 0.0 1.0 0.00 0.44 0.00 95 1015.4
20260510093025 52 155 0.0 2.0 0.00 0.44 0.00 95 1015.4
20260510090010 52 292 0.0 0.0 0.00 0.45 0.00 96 1015.6
20260510081509 52 292 0.0 0.0 0.00 0.47 0.00 95 1015.3
20260510080008 52 182 0.0 0.0 0.00 0.47 0.00 95 1015.2
20260510074507 52 166 0.0 1.0 0.00 0.47 0.00 95 1015.1
20260510073007 52 180 0.0 0.0 0.00 0.47 0.00 95 1015.2
20260510071509 52 180 0.0 0.0 0.00 0.47 0.00 95 1015.2
20260510064510 52 180 0.0 0.0 0.00 0.47 0.00 95 1015.1
20260510063008 52 180 0.0 0.0 0.00 0.47 0.00 94 1014.7
20260510061509 52 175 0.0 1.0 0.00 0.47 0.00 95 1014.7
20260510060009 52 155 0.0 1.0 0.00 0.47 0.00 95 1014.8
20260510054523 52 135 0.0 0.0 0.00 0.47 0.00 95 1014.9
20260510053009 52 140 0.0 0.0 0.00 0.47 0.00 94 1014.9
20260510051524 52 196 0.0 0.0 0.00 0.47 0.00 94 1015.1
20260510050009 52 202 0.0 0.0 0.00 0.47 0.00 94 1015.0
20260510044508 53 202 0.0 0.0 0.00 0.47 0.00 94 1015.0
20260510043025 53 202 0.0 0.0 0.00 0.47 0.00 95 1014.9
20260510041508 53 202 0.0 0.0 0.00 0.47 0.00 94 1014.9
20260510040017 53 167 0.0 0.0 0.00 0.47 0.00 95 1015.0
20260510034516 53 135 0.0 0.0 0.00 0.47 0.47 94 1015.0
20260510030016 53 135 0.0 0.0 0.00 0.47 0.47 95 1014.6
20260510023017 53 135 0.0 0.0 0.00 0.47 0.47 94 1014.9
20260510020017 53 135 0.0 0.0 0.00 0.47 0.47 95 1015.0
20260510014519 53 135 0.0 0.0 0.00 0.47 0.47 94 1015.0
20260510013016 53 135 0.0 0.0 0.00 0.47 0.47 94 1014.9
20260510011517 53 135 0.0 0.0 0.00 0.47 0.47 95 1014.7
20260510004518 53 171 0.0 2.0 0.01 0.47 0.47 94 1014.4
20260510003017 53 189 0.0 2.0 0.01 0.47 0.47 94 1014.2
20260510001517 53 165 0.0 4.0 0.02 0.47 0.47 94 1014.1
20260510000017 53 149 0.0 1.0 0.04 0.47 0.46 94 1014.1
20260509234516 52 189 0.0 1.0 0.04 0.46 0.46 94 1014.5
20260509231517 52 201 0.0 2.0 0.06 0.45 0.43 93 1014.7
20260509230016 52 178 0.0 2.0 0.06 0.43 0.42 93 1014.7